| time (UTC) | temp F | wind direction | speed MPH | gust MPH | rain 1hr in | rain 24hr in | rain mn in | humidity % | barometer mb |
| 20260506233516 | 0 | 12 | 3.0 | 7.0 | 0.00 | 0.00 | 0.00 | ||
| 20260506232516 | 0 | 14 | 2.0 | 5.0 | 0.00 | 0.00 | 0.00 | ||
| 20260506231516 | 0 | 13 | 1.0 | 8.0 | 0.00 | 0.00 | 0.00 | ||
| 20260506230517 | 0 | 31 | 2.0 | 12.0 | 0.00 | 0.00 | 0.00 | ||
| 20260506225538 | 0 | 29 | 2.0 | 10.0 | 0.00 | 0.00 | 0.00 | ||
| 20260506224517 | 0 | 17 | 1.0 | 7.0 | 0.00 | 0.00 | 0.00 | ||
| 20260506223516 | 0 | 19 | 2.0 | 8.0 | 0.00 | 0.00 | 0.00 | ||
| 20260506222518 | 0 | 20 | 3.0 | 8.0 | 0.00 | 0.00 | 0.00 | ||
| 20260506221516 | 0 | 17 | 1.0 | 6.0 | 0.00 | 0.00 | 0.00 | ||
| 20260506220516 | 0 | 0.0 | 3.0 | 0.00 | 0.00 | 0.00 | |||
| 20260506215517 | 0 | 17 | 1.0 | 7.0 | 0.00 | 0.00 | 0.00 | ||
| 20260506214515 | 0 | 0.0 | 6.0 | 0.00 | 0.00 | 0.00 | |||
| 20260506213515 | 0 | 16 | 0.0 | 1.0 | 0.00 | 0.00 | 0.00 | ||
| 20260506212515 | 0 | 0.0 | 6.0 | 0.00 | 0.00 | 0.00 | |||
| 20260506211515 | 0 | 16 | 1.0 | 6.0 | 0.00 | 0.00 | 0.00 | ||
| 20260506210537 | 0 | 16 | 1.0 | 6.0 | 0.00 | 0.00 | 0.00 | ||
| 20260506205515 | 0 | 15 | 2.0 | 8.0 | 0.00 | 0.00 | 0.00 | ||
| 20260506204517 | 0 | 10 | 1.0 | 8.0 | 0.00 | 0.00 | 0.00 | ||
| 20260506203515 | 0 | 1.0 | 7.0 | 0.00 | 0.00 | 0.00 | |||
| 20260506202516 | 0 | 350 | 1.0 | 6.0 | 0.00 | 0.00 | 0.00 | ||
| 20260506201535 | 0 | 0.0 | 0.0 | 0.00 | 0.00 | 0.00 | |||
| 20260506200515 | 0 | 0.0 | 0.0 | 0.00 | 0.00 | 0.00 | |||
| 20260506195517 | 0 | 0.0 | 0.0 | 0.00 | 0.00 | 0.00 | |||
| 20260506194515 | 0 | 0.0 | 0.0 | 0.00 | 0.00 | 0.00 | |||
| 20260506193515 | 0 | 0.0 | 0.0 | 0.00 | 0.00 | 0.00 | |||
| 20260506192515 | 0 | 0.0 | 0.0 | 0.00 | 0.00 | 0.00 | |||
| 20260506191535 | 0 | 0.0 | 0.0 | 0.00 | 0.00 | 0.00 | |||
| 20260506190515 | 0 | 0.0 | 0.0 | 0.00 | 0.00 | 0.00 | |||
| 20260506185515 | 0 | 0.0 | 0.0 | 0.00 | 0.00 | 0.00 | |||
| 20260506184518 | 0 | 0.0 | 0.0 | 0.00 | 0.00 | 0.00 | |||
| 20260506183516 | 0 | 0.0 | 0.0 | 0.00 | 0.00 | 0.00 | |||
| 20260506182515 | 0 | 0.0 | 0.0 | 0.00 | 0.00 | 0.00 | |||
| 20260506181515 | 0 | 0.0 | 0.0 | 0.00 | 0.00 | 0.00 | |||
| 20260506180515 | 0 | 17 | 0.0 | 6.0 | 0.00 | 0.00 | 0.00 | ||
| 20260506175516 | 0 | 36 | 1.0 | 11.0 | 0.00 | 0.00 | 0.00 | ||
| 20260506174515 | 0 | 29 | 1.0 | 10.0 | 0.00 | 0.00 | 0.00 | ||
| 20260506173515 | 0 | 31 | 1.0 | 6.0 | 0.00 | 0.00 | 0.00 | ||
| 20260506172516 | 0 | 34 | 1.0 | 7.0 | 0.00 | 0.00 | 0.00 | ||
| 20260506171517 | 0 | 36 | 3.0 | 7.0 | 0.00 | 0.00 | 0.00 | ||
| 20260506170515 | 0 | 40 | 0.0 | 1.0 | 0.00 | 0.00 | 0.00 | ||
| 20260506165517 | 0 | 40 | 0.0 | 4.0 | 0.00 | 0.00 | 0.00 | ||
| 20260506164515 | 0 | 0.0 | 0.0 | 0.00 | 0.00 | 0.00 | |||
| 20260506163517 | 0 | 347 | 0.0 | 4.0 | 0.00 | 0.00 | 0.00 | ||
| 20260506162516 | 0 | 42 | 0.0 | 3.0 | 0.00 | 0.00 | 0.00 | ||
| 20260506161538 | 0 | 45 | 0.0 | 5.0 | 0.00 | 0.00 | 0.00 | ||
| 20260506160514 | 0 | 69 | 0.0 | 6.0 | 0.00 | 0.00 | 0.00 | ||
| 20260506155516 | 0 | 69 | 0.0 | 7.0 | 0.00 | 0.00 | 0.00 | ||
| 20260506154516 | 0 | 0.0 | 1.0 | 0.00 | 0.00 | 0.00 | |||
| 20260506153516 | 0 | 22 | 0.0 | 7.0 | 0.00 | 0.00 | 0.00 | ||
| 20260506152517 | 0 | 87 | 2.0 | 10.0 | 0.00 | 0.00 | 0.00 | ||
| 20260506151516 | 0 | 57 | 2.0 | 8.0 | 0.00 | 0.00 | 0.00 | ||
| 20260506150516 | 0 | 58 | 4.0 | 11.0 | 0.00 | 0.00 | 0.00 | ||
| 20260506145538 | 0 | 65 | 4.0 | 12.0 | 0.00 | 0.00 | 0.00 | ||
| 20260506144516 | 57 | 47 | 5.0 | 11.0 | 0.00 | 0.00 | 0.00 | 50 | |
| 20260506143518 | 57 | 44 | 7.0 | 13.0 | 0.00 | 0.00 | 0.00 | 50 | |
| 20260506142516 | 57 | 52 | 7.0 | 16.0 | 0.00 | 0.00 | 0.00 | 48 | |
| 20260506141516 | 56 | 61 | 6.0 | 13.0 | 0.00 | 0.00 | 0.00 | 48 | |
| 20260506140516 | 0 | 61 | 2.0 | 12.0 | 0.00 | 0.00 | 0.00 | ||
| 20260506135516 | 0 | 50 | 8.0 | 16.0 | 0.00 | 0.00 | 0.00 | ||
| 20260506134516 | 0 | 39 | 6.0 | 14.0 | 0.00 | 0.00 | 0.00 | ||
| 20260506133516 | 56 | 30 | 8.0 | 17.0 | 0.00 | 0.00 | 0.00 | 50 | |
| 20260506132516 | 56 | 33 | 8.0 | 18.0 | 0.00 | 0.00 | 0.00 | 50 | |
| 20260506131537 | 56 | 36 | 7.0 | 16.0 | 0.00 | 0.00 | 0.00 | 51 | |
| 20260506130516 | 0 | 56 | 6.0 | 18.0 | 0.00 | 0.00 | 0.00 | ||
| 20260506125516 | 0 | 39 | 8.0 | 17.0 | 0.00 | 0.00 | 0.00 | ||
| 20260506124516 | 0 | 33 | 7.0 | 16.0 | 0.00 | 0.00 | 0.00 | ||
| 20260506123536 | 0 | 36 | 7.0 | 13.0 | 0.00 | 0.00 | 0.00 | ||
| 20260506122516 | 0 | 39 | 7.0 | 20.0 | 0.00 | 0.00 | 0.00 | ||
| 20260506121518 | 0 | 43 | 8.0 | 16.0 | 0.00 | 0.00 | 0.00 | ||
| 20260506120516 | 56 | 43 | 9.0 | 17.0 | 0.00 | 0.00 | 0.00 | 47 | |
| 20260506115516 | 56 | 51 | 5.0 | 14.0 | 0.00 | 0.00 | 0.00 | 47 | |
| 20260506114516 | 56 | 66 | 4.0 | 13.0 | 0.00 | 0.00 | 0.00 | 47 | |
| 20260506113518 | 56 | 41 | 4.0 | 19.0 | 0.00 | 0.00 | 0.00 | 47 | |
| 20260506112557 | 56 | 35 | 3.0 | 13.0 | 0.00 | 0.00 | 0.00 | 48 | |
| 20260506111536 | 56 | 35 | 6.0 | 17.0 | 0.00 | 0.00 | 0.00 | 51 | |
| 20260506110516 | 0 | 24 | 6.0 | 11.0 | 0.00 | 0.00 | 0.00 | ||
| 20260506105536 | 0 | 37 | 5.0 | 13.0 | 0.00 | 0.00 | 0.00 | ||
| 20260506104516 | 0 | 36 | 6.0 | 13.0 | 0.00 | 0.00 | 0.00 | ||
| 20260506103516 | 57 | 43 | 5.0 | 12.0 | 0.00 | 0.00 | 0.00 | 52 | |
| 20260506102516 | 57 | 49 | 3.0 | 10.0 | 0.00 | 0.00 | 0.00 | 51 | |
| 20260506101516 | 57 | 57 | 5.0 | 14.0 | 0.00 | 0.00 | 0.00 | 50 | |
| 20260506100539 | 58 | 55 | 7.0 | 17.0 | 0.00 | 0.00 | 0.00 | 50 | |
| 20260506095516 | 58 | 49 | 7.0 | 16.0 | 0.00 | 0.00 | 0.00 | 49 | |
| 20260506094515 | 57 | 41 | 7.0 | 16.0 | 0.00 | 0.00 | 0.00 | 48 | |
| 20260506093517 | 57 | 51 | 6.0 | 18.0 | 0.00 | 0.00 | 0.00 | 49 | |
| 20260506092517 | 0 | 49 | 5.0 | 14.0 | 0.00 | 0.00 | 0.00 | ||
| 20260506091516 | 57 | 24 | 6.0 | 16.0 | 0.00 | 0.00 | 0.00 | 50 | |
| 20260506090516 | 57 | 40 | 7.0 | 19.0 | 0.00 | 0.00 | 0.00 | 50 | |
| 20260506085516 | 56 | 57 | 6.0 | 16.0 | 0.00 | 0.00 | 0.00 | 51 | |
| 20260506084517 | 56 | 41 | 6.0 | 18.0 | 0.00 | 0.00 | 0.00 | 53 | |
| 20260506083517 | 55 | 38 | 7.0 | 16.0 | 0.00 | 0.00 | 0.00 | 56 | |
| 20260506082516 | 55 | 51 | 6.0 | 18.0 | 0.00 | 0.00 | 0.00 | 59 | |
| 20260506081515 | 54 | 51 | 5.0 | 14.0 | 0.00 | 0.00 | 0.00 | 59 | |
| 20260506080517 | 0 | 40 | 7.0 | 19.0 | 0.00 | 0.00 | 0.00 | ||
| 20260506072517 | 0 | 13 | 5.0 | 13.0 | 0.00 | 0.00 | 0.00 | ||
| 20260506071515 | 0 | 24 | 6.0 | 12.0 | 0.00 | 0.00 | 0.00 | ||
| 20260506070515 | 0 | 15 | 3.0 | 15.0 | 0.00 | 0.00 | 0.00 | ||
| 20260506062515 | 0 | 17 | 6.0 | 12.0 | 0.00 | 0.00 | 0.00 | ||
| 20260506061517 | 0 | 17 | 4.0 | 10.0 | 0.00 | 0.00 | 0.00 | ||
| 20260506060517 | 0 | 8 | 1.0 | 7.0 | 0.00 | 0.00 | 0.00 | ||
| 20260506050517 | 0 | 358 | 2.0 | 12.0 | 0.00 | 0.00 | 0.00 | ||
| 20260506044515 | 0 | 13 | 3.0 | 10.0 | 0.00 | 0.00 | 0.00 | ||
| 20260506043517 | 0 | 8 | 2.0 | 8.0 | 0.00 | 0.00 | 0.00 | ||
| 20260506042516 | 0 | 11 | 1.0 | 7.0 | 0.00 | 0.00 | 0.00 | ||
| 20260506041515 | 0 | 359 | 1.0 | 7.0 | 0.00 | 0.00 | 0.00 | ||
| 20260506040537 | 0 | 353 | 1.0 | 10.0 | 0.00 | 0.00 | 0.00 | ||
| 20260506035515 | 0 | 18 | 3.0 | 9.0 | 0.00 | 0.00 | 0.00 | ||
| 20260506034515 | 0 | 16 | 2.0 | 7.0 | 0.00 | 0.00 | 0.00 | ||
| 20260506033515 | 0 | 17 | 0.0 | 7.0 | 0.00 | 0.00 | 0.00 | ||
| 20260506032515 | 0 | 14 | 0.0 | 7.0 | 0.00 | 0.00 | 0.00 | ||
| 20260506031515 | 0 | 11 | 0.0 | 6.0 | 0.00 | 0.00 | 0.00 | ||
| 20260506030515 | 0 | 23 | 1.0 | 7.0 | 0.00 | 0.00 | 0.00 | ||
| 20260506025536 | 0 | 16 | 0.0 | 6.0 | 0.00 | 0.00 | 0.00 | ||
| 20260506024536 | 0 | 18 | 3.0 | 8.0 | 0.00 | 0.00 | 0.00 | ||
| 20260506023515 | 0 | 22 | 2.0 | 7.0 | 0.00 | 0.00 | 0.00 | ||
| 20260506022516 | 0 | 33 | 6.0 | 12.0 | 0.00 | 0.00 | 0.00 | ||
| 20260506021515 | 0 | 19 | 5.0 | 13.0 | 0.00 | 0.00 | 0.00 | ||
| 20260506020516 | 0 | 36 | 1.0 | 7.0 | 0.00 | 0.00 | 0.00 | ||
| 20260506015514 | 0 | 33 | 3.0 | 11.0 | 0.00 | 0.00 | 0.00 | ||
| 20260506014516 | 0 | 28 | 4.0 | 11.0 | 0.00 | 0.00 | 0.00 | ||
| 20260506013516 | 0 | 29 | 5.0 | 12.0 | 0.00 | 0.00 | 0.00 | ||
| 20260506012517 | 0 | 22 | 4.0 | 13.0 | 0.00 | 0.00 | 0.00 | ||
| 20260506011535 | 0 | 20 | 4.0 | 11.0 | 0.00 | 0.00 | 0.00 | ||
| 20260506010517 | 0 | 23 | 2.0 | 16.0 | 0.00 | 0.00 | 0.00 | ||
| 20260506005516 | 0 | 25 | 4.0 | 12.0 | 0.00 | 0.00 | 0.00 | ||
| 20260506004517 | 0 | 3 | 5.0 | 14.0 | 0.00 | 0.00 | 0.00 | ||
| 20260506003515 | 0 | 358 | 3.0 | 9.0 | 0.00 | 0.00 | 0.00 | ||
| 20260506002558 | 0 | 10 | 6.0 | 12.0 | 0.00 | 0.00 | 0.00 | ||
| 20260506001514 | 0 | 19 | 3.0 | 10.0 | 0.00 | 0.00 | 0.00 | ||
| 20260506000516 | 0 | 10 | 3.0 | 11.0 | 0.00 | 0.00 | 0.00 | ||
| 20260505235516 | 0 | 18 | 4.0 | 11.0 | 0.00 | 0.00 | 0.00 | ||
| 20260505234518 | 0 | 19 | 4.0 | 14.0 | 0.00 | 0.00 | 0.00 |